SB KEPS @ AMSAT $ORB11248.N 2Line Orbital Elements 11248.AMSAT
HR AMSAT ORBITAL ELEMENTS FOR AMATEUR SATELLITES IN NASA FORMAT FROM WA5QGD FORT WORTH,TX September 5, 2011 Send Subscribe/unsubscribe to KEPS at http://www.amsat.org/mailman/listinfo/keps BID: ORB11248.N
DECODE 2-LINE ELSETS WITH THE FOLLOWING KEY: 1 AAAAAU 00 0 0 BBBBB.BBBBBBBB .CCCCCCCC 00000-0 00000-0 0 DDDZ 2 AAAAA EEE.EEEE FFF.FFFF GGGGGGG HHH.HHHH III.IIII JJ.JJJJJJJJKKKKKZ KEY: A-CATALOGNUM B-EPOCHTIME C-DECAY D-ELSETNUM E-INCLINATION F-RAAN G-ECCENTRICITY H-ARGPERIGEE I-MNANOM J-MNMOTION K-ORBITNUM Z-CHECKSUM
TO ALL RADIO AMATEURS BT
AO-07 1 07530U 74089B 11247.64286654 -.00000027 00000-0 10000-3 0 1715 2 07530 101.3958 251.0560 0012085 122.8610 237.3621 12.53583865684142 FO-29 1 24278U 96046B 11247.92350374 -.00000022 00000-0 12105-4 0 06766 2 24278 098.5607 021.3445 0351192 050.6989 312.4736 13.52964027743242 SO-33 1 25509U 98061B 11247.76635877 .00000328 00000-0 50876-4 0 00487 2 25509 031.4324 154.2142 0353839 217.6378 139.9078 14.28440830671661 RS-22 1 27939U 03042A 11248.62025113 .00000225 00000-0 51701-4 0 6023 2 27939 097.8368 098.7396 0014663 089.6248 270.6636 14.63634249424105 VO-52 1 28650U 05017B 11247.75941323 .00000836 00000-0 11085-3 0 08919 2 28650 097.6348 287.3048 0025619 260.7520 099.0800 14.82160918342530 SO-67 1 35870U 09049F 11248.74792147 .00001930 00000-0 89922-4 0 1924 2 35870 097.2733 289.4032 0003964 095.2759 358.4252 15.21038629109188 HO-68 1 36122U 09072B 11248.73099060 -.00000044 00000-0 00000 0 0 7123 2 36122 100.4067 308.2950 0007668 043.5531 316.6194 13.16288000 82839 UO-11 1 14781U 84021B 11248.72819886 .00000290 00000-0 45320-4 0 6469 2 14781 097.9970 305.1520 0007920 235.1719 124.8748 14.80024286477700 AO-16 1 20439U 90005D 11248.44924927 .00000063 00000-0 39432-4 0 2727 2 20439 098.3911 195.4104 0010136 289.0874 070.9214 14.31936750129109 LO-19 1 20442U 90005G 11247.88739771 .00000138 00000-0 66798-4 0 02031 2 20442 098.3550 198.9154 0010962 282.0671 077.9284 14.32161163129204 AO-27 1 22825U 93061C 11248.51216645 -.00000004 00000-0 15261-4 0 9066 2 22825 098.5371 191.3305 0009111 044.0453 316.1455 14.29360873935665 IO-26 1 22826U 93061D 11247.86695822 .00000046 00000-0 34719-4 0 06726 2 22826 098.5296 191.1477 0009780 039.6387 320.5506 14.29624709935698 GO-32 1 25397U 98043D 11248.48012589 -.00000076 00000-0 -15548-4 0 5711 2 25397 098.3339 236.7748 0001946 064.0630 296.0740 14.23217005683380 NO-44 1 26931U 01043C 11247.86213124 .00000089 00000-0 66877-4 0 08445 2 26931 067.0517 138.2258 0005427 255.6120 104.4391 14.29676671518316 SO-50 1 27607U 02058C 11247.70110482 .00000075 00000-0 33327-4 0 05580 2 27607 064.5576 086.0409 0078923 304.4510 054.9150 14.71801726467794 CO-55 1 27844U 03031E 11247.61200551 .00000128 00000-0 79253-4 0 1912 2 27844 098.7084 255.1658 0009680 335.6002 024.4705 14.20838850424198 CO-57 1 27848U 03031J 11247.99041090 .00000086 00000-0 60176-4 0 1409 2 27848 098.7147 254.7550 0009474 339.2843 020.7956 14.20615070424196 AO-51 1 28375U 04025K 11248.80935756 .00000045 00000-0 26218-4 0 639 2 28375 098.1065 223.0517 0083038 185.2125 174.8208 14.40776603377670 CP3 1 31129U 07012N 11248.53975377 .00000250 00000-0 68152-4 0 9610 2 31129 097.8951 268.0994 0100170 291.5888 067.4668 14.52551790232503 CO-65 1 32785U 08021C 11247.61082853 .00000812 00000-0 10857-3 0 00901 2 32785 097.8408 309.9573 0013712 277.8733 082.0986 14.82098529181304 PRISM 1 33493U 09002B 11248.78650567 .00001348 00000-0 17683-3 0 9324 2 33493 098.1347 018.6258 0020539 137.9539 222.3267 14.81887963141456 SOHLA-1 1 33496U 09002E 11247.84562492 .00000135 00000-0 30975-4 0 05208 2 33496 098.0865 356.8971 0005763 224.7641 135.3089 14.69650720140182 TISAT-1 1 36799U 10035E 11248.75931600 .00000757 00000-0 10544-3 0 2067 2 36799 098.0952 317.7864 0015655 022.1600 338.0280 14.80689056 62232 STUDSAT 1 36801U 10035G 11247.74454203 .00002049 00000-0 27149-3 0 2355 2 36801 098.1019 316.6846 0014086 013.0019 347.1550 14.80945590 62070 OOREOS 1 37224U 10062C 11153.29456974 .00000492 00000-0 77478-4 0 01796 2 37224 071.9726 071.8135 0020315 307.7637 052.1684 14.77036357028673 FO-69 1 37227U 0 11246.44010383 .00000173 00000-0 32652-4 0 01218 2 37227 071.9667 226.7145 0016196 141.1269 219.1061 14.76632638020876 NANOSALD 1 37361U 0 11242.25215765 .00180112 00000-0 75811-2 0 03512 2 37361 071.9735 221.4469 0025730 245.3422 114.7284 15.22200108033319 FO-70 1 37380U 0 11246.46620481 .00000222 00000-0 39843-4 0 02581 2 37380 071.9703 226.8591 0016523 137.3020 222.9438 14.76397934042410 NOAA-10 1 16969U 86073A 11247.97668736 .00000015 00000-0 23916-4 0 06316 2 16969 098.6160 276.6610 0012378 356.4620 003.6472 14.27474773299039 NOAA-11 1 19531U 88089A 11247.82553254 -.00000230 00000-0 -96682-4 0 06259 2 19531 098.7486 333.7743 0010723 325.4052 034.6418 14.14920975184019 NOAA-12 1 21263U 91032A 11247.95070371 .00000032 00000-0 32279-4 0 01327 2 21263 098.7502 265.6514 0011865 319.2274 040.8018 14.25735123055773 MET-3/5 1 21655U 91056A 11248.81243054 .00000051 00000-0 10000-3 0 2019 2 21655 082.5619 353.8044 0012556 320.2989 039.7261 13.17029035964335 MET-2/21 1 22782U 93055A 11247.58350389 -.00000011 00000-0 -23450-4 0 01959 2 22782 082.5445 259.8856 0021180 233.8902 126.0290 13.83660443909537 OKEAN-4 1 23317U 94066A 11247.91083745 .00000414 00000-0 47768-4 0 07211 2 23317 082.5405 298.6963 0020765 212.2098 147.7851 14.83138576912369 NOAA-14 1 23455U 94089A 11247.93450126 -.00000016 00000-0 15035-4 0 06245 2 23455 098.8493 329.7644 0010236 055.8686 304.3453 14.13829623860349 NOAA-15 1 25338U 98030A 11247.79279795 .00000053 00000-0 41368-4 0 09399 2 25338 098.6629 232.8739 0009955 216.9972 143.0498 14.24945990692060 RESURS 1 25394U 98043A 11247.98538638 -.00000003 00000-0 16233-4 0 08871 2 25394 098.3032 246.6274 0002069 027.9269 332.2023 14.24238313683668 FENGYUN1 1 25730U 99025A 11247.93451020 .00000885 00000-0 53652-3 0 04351 2 25730 098.8220 207.3956 0024581 088.9012 271.4974 14.08762287634291 OKEAN-0 1 25860U 99039A 11247.93550290 .00000195 00000-0 37179-4 0 04293 2 25860 097.8933 212.2259 0001856 077.6524 282.4890 14.73824339652400 NOAA-16 1 26536U 00055A 11247.75945935 -.00000135 00000-0 -47824-4 0 04225 2 26536 099.1347 279.8986 0010806 164.9358 195.2121 14.12640850564598 NOAA-17 1 27453U 02032A 11247.91027742 .00000209 00000-0 10846-3 0 04106 2 27453 098.3723 283.9360 0010713 276.5714 083.4235 14.24308301478000 NOAA-18 1 28654U 05018A 11247.91773968 .00000446 00000-0 27049-3 0 08880 2 28654 099.0029 199.2879 0013565 238.9864 120.9986 14.11509961324170 NOAA-19 1 33591U 09005A 11247.93268814 -.00000066 00000-0 -12512-4 0 00799 2 33591 098.8309 186.7617 0015001 109.2849 250.9948 14.11198389132633 HUBBLE 1 20580U 90037B 11247.55236903 .00000821 00000-0 49329-4 0 8308 2 20580 028.4687 217.9701 0003201 239.6109 120.4135 15.01478389971598 ISS 1 25544U 98067A 11248.86966435 .00004921 00000-0 63892-4 0 161 2 25544 051.6388 114.6529 0012349 157.7341 032.5882 15.60816709733507 CO-58 1 28895U 05043F 11248.65374191 .00000247 00000-0 60572-4 0 9667 2 28895 097.9526 121.8821 0017485 331.8403 028.1848 14.60160317311984 FALCON 1 30776U 07006E 11248.25940880 .00001742 00000-0 12356-3 0 1646 2 30776 035.4334 220.0124 0001535 034.0865 325.9950 15.04884571247119 MAST 1 31126U 07012K 11248.63224927 .00000044 00000-0 20469-4 0 2529 2 31126 097.8911 271.3006 0093302 280.6090 078.4607 14.53794332232775 CAPE1 1 31130U 07012P 11248.62421261 .00000210 00000-0 58995-4 0 2657 2 31130 097.8973 267.9443 0101328 291.8564 067.1876 14.52453426232310 COMPASS 1 32787U 08021E 11248.25915010 .00000703 00000-0 93814-4 0 830 2 32787 097.8401 310.5600 0014584 275.3986 084.5585 14.82571159181429 AAUSAT2 1 32788U 08021F 11247.74014143 .00000985 00000-0 12821-3 0 00763 2 32788 097.8419 310.3021 0014062 277.4197 082.5416 14.82766873181365 DO-64 1 32789U 08021G 11247.78957785 .00001131 00000-0 14446-3 0 00912 2 32789 097.8505 311.5125 0014060 275.0322 084.9282 14.83319364181381 CO-66 1 32791U 08021J 11247.61811732 .00001056 00000-0 13878-3 0 00787 2 32791 097.8407 309.8455 0014760 276.9432 083.0135 14.82240091181274 RS-30 1 32953U 08025A 11248.71678956 .00000010 00000-0 00000 0 0 599 2 32953 082.5008 112.6689 0017925 209.7318 150.2743 12.43014754149090 TACSAT-3 1 35001U 09028A 11248.52150992 .00024066 00000-0 39811-3 0 6874 2 35001 040.4499 044.0537 0018611 087.3298 272.9658 15.51398083129552 PHARMSAT 1 35002U 09028B 11248.58503863 .00017988 00000-0 30786-3 0 6406 2 35002 040.4702 041.9908 0020488 096.3230 263.9957 15.50534339129589 HAWKSAT1 1 35003U 09028C 11248.66522968 .00217442 00000-0 10955-2 0 7507 2 35003 040.4495 356.0855 0013103 105.9468 254.2824 15.80065159130092 CP6 1 35004U 09028D 11247.64656856 .16152067 73217-5 10011-2 0 7842 2 35004 040.4403 342.9642 0002956 038.0069 322.2231 16.41039951130139 METEOR-M 1 35865U 09049A 11248.72637708 .00000177 00000-0 10000-3 0 7015 2 35865 098.6987 302.7798 0002614 139.6482 220.4841 14.21841591102031 RS-38 1 35869U 09049E 11248.78680584 .00000177 00000-0 10000-3 0 6834 2 35869 098.6951 302.8694 0004656 149.4289 210.7122 14.22020341102053 ARISSAT1 1 37772U 98067CK 11248.83697948 .00037664 00000-0 42067-3 0 1020 2 37772 051.6386 114.6092 0011903 165.1631 298.7396 15.62305814 5089 /EX